,,Stat5,,Stat1,,Stat2,,Stat3,,Stat4,,Wind1,,Wind1,
time,status,PA1M_AVG,status,PR1M_SUM,status,RH1M_AVG,status,SR1M_AVG,status,TA1M_AVG,status,W1dAve1m,status,W1sAve1m,
2002-02-02, 00:00:00,VALID,920.431,VALID,0,VALID,85.537,VALID,-0.0679233,VALID,19.2989,VALID,128,VALID,0.867188,
2002-02-02, 00:01:00,VALID,920.435,VALID,0,VALID,85.6324,VALID,-0.0679233,VALID,19.2668,VALID,136,VALID,0.866741,
2002-02-02, 00:02:00,VALID,920.424,VALID,0,VALID,85.6362,VALID,-0.101885,VALID,19.2574,VALID,139,VALID,0.844934,
2002-02-02, 00:03:00,VALID,920.411,VALID,0,VALID,85.6845,VALID,-0.101885,VALID,19.2541,VALID,125,VALID,0.939967,
2002-02-02, 00:04:00,VALID,920.428,VALID,0,VALID,85.9948,VALID,-0.0849042,VALID,19.2119,VALID,92,VALID,0.900446,
2002-02-02, 00:05:00,VALID,920.421,VALID,0,VALID,86.4767,VALID,-0.101885,VALID,19.1448,VALID,88,VALID,1.03033,
2002-02-02, 00:06:00,VALID,920.427,VALID,0,VALID,86.6777,VALID,-0.0679233,VALID,19.0757,VALID,112,VALID,1.00555,
2002-02-02, 00:07:00,VALID,920.435,VALID,0,VALID,86.4411,VALID,-0.0849042,VALID,19.0859,VALID,137,VALID,1.24621,
2002-02-02, 00:08:00,VALID,920.431,VALID,0,VALID,86.3865,VALID,-0.101885,VALID,19.0956,VALID,141,VALID,1.18251,
2002-02-02, 00:09:00,VALID,920.435,VALID,0,VALID,86.2555,VALID,-0.0849042,VALID,19.0988,VALID,150,VALID,1.67842,
2002-02-02, 00:10:00,VALID,920.418,VALID,0,VALID,85.9528,VALID,-0.0849042,VALID,19.1443,VALID,146,VALID,1.14506,
2002-02-02, 00:11:00,VALID,920.407,VALID,0,VALID,85.7328,VALID,-0.101885,VALID,19.1734,VALID,134,VALID,1.15119,
2002-02-02, 00:12:00,VALID,920.395,VALID,0,VALID,85.518,VALID,-0.0849042,VALID,19.2057,VALID,139,VALID,1.50701,
2002-02-02, 00:13:01,VALID,920.384,VALID,0,VALID,85.1772,VALID,-0.0679233,VALID,19.28,VALID,157,VALID,1.58398,
2002-02-02, 00:14:00,VALID,920.361,VALID,0,VALID,84.5592,VALID,-0.101885,VALID,19.3866,VALID,132,VALID,1.40602,
2002-02-02, 00:15:01,VALID,920.366,VALID,0,VALID,84.0683,VALID,-0.101885,VALID,19.4967,VALID,122,VALID,1.54709,
2002-02-02, 00:16:00,VALID,920.382,VALID,0,VALID,84.2425,VALID,-0.0849042,VALID,19.4741,VALID,140,VALID,1.13759,
2002-02-02, 00:17:00,VALID,920.386,VALID,0,VALID,84.4689,VALID,-0.101885,VALID,19.4216,VALID,139,VALID,1.15947,
2002-02-02, 00:18:01,VALID,920.395,VALID,0,VALID,84.5414,VALID,-0.0509425,VALID,19.406,VALID,130,VALID,0.967905,
2002-02-02, 00:19:00,VALID,920.392,VALID,0,VALID,84.5515,VALID,-0.0679233,VALID,19.3965,VALID,103,VALID,1.29754,
2002-02-02, 00:20:00,VALID,920.383,VALID,0,VALID,84.5312,VALID,-0.101885,VALID,19.403,VALID,116,VALID,1.33097,
2002-02-02, 00:21:00,VALID,920.376,VALID,0,VALID,84.0518,VALID,-0.0849042,VALID,19.4703,VALID,142,VALID,1.0473,
2002-02-02, 00:22:00,VALID,920.377,VALID,0,VALID,83.7682,VALID,-0.0679233,VALID,19.5516,VALID,136,VALID,0.853674,
2002-02-02, 00:23:00,VALID,920.367,VALID,0,VALID,83.7733,VALID,-0.0509425,VALID,19.5737,VALID,116,VALID,1.09777,
2002-02-02, 00:24:00,VALID,920.368,VALID,0,VALID,83.8903,VALID,0,VALID,19.5538,VALID,143,VALID,1.45313,
2002-02-02, 00:25:00,VALID,920.359,VALID,0,VALID,83.5953,VALID,0,VALID,19.5566,VALID,139,VALID,1.96658,
2002-02-02, 00:26:00,VALID,920.342,VALID,0,VALID,83.2125,VALID,0.0339617,VALID,19.6242,VALID,115,VALID,1.68612,
2002-02-02, 00:27:01,VALID,920.335,VALID,0,VALID,83.1782,VALID,0,VALID,19.6696,VALID,141,VALID,1.50549,
2002-02-02, 00:28:00,VALID,920.321,VALID,0,VALID,83.3562,VALID,0.0169808,VALID,19.6503,VALID,124,VALID,0.876562,
2002-02-02, 00:29:00,VALID,920.321,VALID,0,VALID,83.6487,VALID,0.0169808,VALID,19.5757,VALID,142,VALID,1.03598,
2002-02-02, 00:30:00,VALID,920.318,VALID,0,VALID,83.9106,VALID,0.0169808,VALID,19.5337,VALID,145,VALID,1.26056,
2002-02-02, 00:31:00,VALID,920.319,VALID,0,VALID,83.8229,VALID,-0.0169808,VALID,19.5143,VALID,144,VALID,1.74831,
2002-02-02, 00:32:00,VALID,920.332,VALID,0,VALID,83.8013,VALID,0.0169808,VALID,19.5173,VALID,144,VALID,1.70597,
2002-02-02, 00:33:00,VALID,920.323,VALID,0,VALID,83.8865,VALID,0,VALID,19.531,VALID,110,VALID,0.932726,
2002-02-02, 00:34:00,VALID,920.309,VALID,0,VALID,84.2273,VALID,0,VALID,19.4726,VALID,118,VALID,1.32357,
2002-02-02, 00:35:00,VALID,920.295,VALID,0,VALID,84.3646,VALID,-0.0169808,VALID,19.4562,VALID,107,VALID,1.10983,
2002-02-02, 00:36:00,VALID,920.309,VALID,0,VALID,84.6749,VALID,0.0169808,VALID,19.4144,VALID,138,VALID,0.914274,
2002-02-02, 00:37:00,VALID,920.276,VALID,0,VALID,84.8618,VALID,0.0169808,VALID,19.3692,VALID,136,VALID,1.34174,
2002-02-02, 00:38:00,VALID,920.277,VALID,0,VALID,85.1237,VALID,0.0339617,VALID,19.3073,VALID,145,VALID,1.48295,
2002-02-02, 00:39:00,VALID,920.268,VALID,0,VALID,85.1822,VALID,0.0339617,VALID,19.2651,VALID,141,VALID,1.25359,
2002-02-02, 00:40:00,VALID,920.249,VALID,0,VALID,85.3717,VALID,0.0679233,VALID,19.2298,VALID,134,VALID,0.959248,
2002-02-02, 00:41:00,VALID,920.24,VALID,0,VALID,85.7061,VALID,0.0509425,VALID,19.165,VALID,125,VALID,0.866714,
2002-02-02, 00:42:01,VALID,920.224,VALID,0,VALID,85.832,VALID,0.0339617,VALID,19.1461,VALID,124,VALID,1.13281,
2002-02-02, 00:43:00,VALID,920.197,VALID,0,VALID,85.7761,VALID,0.0169808,VALID,19.1332,VALID,124,VALID,0.948134,
2002-02-02, 00:44:00,VALID,920.183,VALID,0,VALID,85.8435,VALID,0.0339617,VALID,19.1237,VALID,123,VALID,1.32008,
2002-02-02, 00:45:01,VALID,920.167,VALID,0,VALID,85.8931,VALID,0.0509425,VALID,19.1269,VALID,133,VALID,1.06715,
2002-02-02, 00:46:00,VALID,920.158,VALID,0,VALID,85.9211,VALID,0.0509425,VALID,19.1168,VALID,104,VALID,1.14643,
2002-02-02, 00:47:00,VALID,920.147,VALID,0,VALID,86.0075,VALID,0.0339617,VALID,19.0944,VALID,130,VALID,1.39323,
2002-02-02, 00:48:00,VALID,920.139,VALID,0,VALID,86.094,VALID,0.0509425,VALID,19.0783,VALID,118,VALID,1.40351,
2002-02-02, 00:49:00,VALID,920.13,VALID,0,VALID,86.2237,VALID,0.0849042,VALID,19.0485,VALID,124,VALID,1.51584,
2002-02-02, 00:50:00,VALID,920.132,VALID,0,VALID,86.0889,VALID,0.0169808,VALID,19.0589,VALID,113,VALID,1.46851,
2002-02-02, 00:51:01,VALID,920.134,VALID,0,VALID,86.2351,VALID,0,VALID,19.0489,VALID,131,VALID,1.38411,
2002-02-02, 00:52:00,VALID,920.122,VALID,0,VALID,86.2072,VALID,0.0169808,VALID,19.0393,VALID,131,VALID,1.43164,
2002-02-02, 00:53:00,VALID,920.131,VALID,0,VALID,86.066,VALID,-0.0339617,VALID,19.0693,VALID,129,VALID,1.45014,
2002-02-02, 00:54:01,VALID,920.133,VALID,0,VALID,86.1131,VALID,-0.0679233,VALID,19.0571,VALID,122,VALID,1.43518,
2002-02-02, 00:55:00,VALID,920.125,VALID,0,VALID,86.2504,VALID,-0.101885,VALID,19.0375,VALID,128,VALID,1.26808,
2002-02-02, 00:56:00,VALID,920.129,VALID,0,VALID,86.4195,VALID,-0.0849042,VALID,19.0086,VALID,127,VALID,1.44508,
2002-02-02, 00:57:00,VALID,920.127,VALID,0,VALID,86.4335,VALID,-0.0679233,VALID,19.0054,VALID,138,VALID,1.51372,
2002-02-02, 00:58:00,VALID,920.111,VALID,0,VALID,86.431,VALID,-0.0679233,VALID,19.0052,VALID,123,VALID,1.28927,
2002-02-02, 00:59:00,VALID,920.09,VALID,0,VALID,86.5759,VALID,-0.0849042,VALID,18.9927,VALID,122,VALID,1.04616,
2002-02-02, 01:00:01,VALID,920.076,VALID,0,VALID,86.8811,VALID,-0.0509425,VALID,18.9443,VALID,139,VALID,0.968967,
2002-02-02, 01:01:00,VALID,920.06,VALID,0,VALID,87.1571,VALID,-0.0849042,VALID,18.8891,VALID,133,VALID,1.03624,
2002-02-02, 01:02:00,VALID,920.043,VALID,0,VALID,87.5665,VALID,-0.101885,VALID,18.8243,VALID,119,VALID,1.18589,
2002-02-02, 01:03:01,VALID,920.045,VALID,0,VALID,87.8285,VALID,-0.101885,VALID,18.7629,VALID,113,VALID,1.35431,
2002-02-02, 01:04:00,VALID,920.029,VALID,0,VALID,88.0573,VALID,-0.0679233,VALID,18.7149,VALID,129,VALID,1.19531,
2002-02-02, 01:05:00,VALID,920.001,VALID,0,VALID,88.2722,VALID,-0.101885,VALID,18.6799,VALID,137,VALID,1.12358,
2002-02-02, 01:06:00,VALID,919.984,VALID,0,VALID,88.3956,VALID,-0.0679233,VALID,18.628,VALID,108,VALID,1.12669,
2002-02-02, 01:07:01,VALID,919.982,VALID,0,VALID,88.7656,VALID,-0.0679233,VALID,18.537,VALID,106,VALID,1.0247,
2002-02-02, 01:08:00,VALID,919.972,VALID,0,VALID,89.1128,VALID,-0.0679233,VALID,18.4725,VALID,91,VALID,1.26823,
2002-02-02, 01:09:01,VALID,919.955,VALID,0,VALID,89.1878,VALID,-0.0849042,VALID,18.4503,VALID,108,VALID,1.17708,
2002-02-02, 01:10:00,VALID,919.936,VALID,0,VALID,89.1509,VALID,-0.101885,VALID,18.463,VALID,120,VALID,1.57661,
2002-02-02, 01:11:00,VALID,919.932,VALID,0,VALID,89.2361,VALID,-0.0679233,VALID,18.4565,VALID,110,VALID,1.3318,
2002-02-02, 01:12:01,VALID,919.932,VALID,0,VALID,89.3391,VALID,-0.0679233,VALID,18.4475,VALID,108,VALID,0.993243,
2002-02-02, 01:13:00,VALID,919.928,VALID,0,VALID,89.1662,VALID,-0.101885,VALID,18.4538,VALID,102,VALID,1.2192,
2002-02-02, 01:14:00,VALID,919.906,VALID,0,VALID,89.1102,VALID,-0.101885,VALID,18.4471,VALID,117,VALID,1.27794,
2002-02-02, 01:15:00,VALID,919.893,VALID,0,VALID,89.0645,VALID,-0.0849042,VALID,18.4531,VALID,131,VALID,1.12669,
2002-02-02, 01:16:01,VALID,919.881,VALID,0,VALID,88.9869,VALID,-0.0679233,VALID,18.4766,VALID,121,VALID,0.907095,
2002-02-02, 01:17:00,VALID,919.879,VALID,0,VALID,88.9424,VALID,-0.101885,VALID,18.4602,VALID,112,VALID,0.978693,
2002-02-02, 01:18:01,VALID,919.891,VALID,0,VALID,89.0988,VALID,-0.101885,VALID,18.4374,VALID,98,VALID,1.35178,
2002-02-02, 01:19:01,VALID,919.882,VALID,0,VALID,89.2895,VALID,-0.118866,VALID,18.4242,VALID,116,VALID,1.31055,
2002-02-02, 01:20:00,VALID,919.849,VALID,0,VALID,89.2781,VALID,-0.101885,VALID,18.4249,VALID,120,VALID,1.37661,
2002-02-02, 01:21:01,VALID,919.843,VALID,0,VALID,89.334,VALID,-0.101885,VALID,18.4049,VALID,132,VALID,1.70714,
2002-02-02, 01:22:00,VALID,919.833,VALID,0,VALID,89.2272,VALID,-0.0849042,VALID,18.4219,VALID,122,VALID,1.34777,
2002-02-02, 01:23:00,VALID,919.826,VALID,0,VALID,89.1725,VALID,-0.0509425,VALID,18.4012,VALID,116,VALID,1.40128,
2002-02-02, 01:24:00,VALID,919.818,VALID,0,VALID,89.2348,VALID,0,VALID,18.3744,VALID,85,VALID,0.888514,
2002-02-02, 01:25:01,VALID,919.804,VALID,0,VALID,89.6583,VALID,0,VALID,18.3292,VALID,109,VALID,1.22044,
2002-02-02, 01:26:00,VALID,919.807,VALID,0,VALID,89.8338,VALID,0.0169808,VALID,18.2969,VALID,131,VALID,1.16217,
2002-02-02, 01:27:01,VALID,919.797,VALID,0,VALID,89.8656,VALID,0.0339617,VALID,18.2902,VALID,131,VALID,1.23698,
2002-02-02, 01:28:01,VALID,919.795,VALID,0,VALID,89.8274,VALID,0.0339617,VALID,18.2969,VALID,145,VALID,1.12804,
2002-02-02, 01:29:00,VALID,919.767,VALID,0,VALID,89.7308,VALID,0,VALID,18.3133,VALID,134,VALID,1.58111,
2002-02-02, 01:30:01,VALID,919.748,VALID,0,VALID,89.3086,VALID,0.0339617,VALID,18.3873,VALID,138,VALID,1.21706,
2002-02-02, 01:31:00,VALID,919.742,VALID,0,VALID,88.9869,VALID,0.0169808,VALID,18.4425,VALID,134,VALID,1.1375,
2002-02-02, 01:32:00,VALID,919.734,VALID,0,VALID,88.9678,VALID,0.0509425,VALID,18.4521,VALID,130,VALID,1.3196,
2002-02-02, 01:33:00,VALID,919.721,VALID,0,VALID,88.95,VALID,0.0169808,VALID,18.4655,VALID,125,VALID,1.07496,
2002-02-02, 01:34:01,VALID,919.709,VALID,0,VALID,88.992,VALID,0.0169808,VALID,18.4494,VALID,138,VALID,1.30279,
2002-02-02, 01:35:00,VALID,919.685,VALID,0,VALID,89.0047,VALID,0.0339617,VALID,18.4238,VALID,130,VALID,0.879261,
2002-02-02, 01:36:01,VALID,919.679,VALID,0,VALID,89.3582,VALID,0.0339617,VALID,18.3823,VALID,133,VALID,1.29905,
2002-02-02, 01:37:00,VALID,919.666,VALID,0,VALID,89.5248,VALID,0,VALID,18.3393,VALID,129,VALID,1.03364,
2002-02-02, 01:38:00,VALID,919.675,VALID,0,VALID,89.6112,VALID,-0.0169808,VALID,18.3274,VALID,132,VALID,0.994026,
2002-02-02, 01:39:01,VALID,919.662,VALID,0,VALID,89.5197,VALID,-0.0169808,VALID,18.3343,VALID,122,VALID,1.07432,
2002-02-02, 01:40:00,VALID,919.644,VALID,0,VALID,89.6392,VALID,-0.0849042,VALID,18.3184,VALID,109,VALID,1.38661,
2002-02-02, 01:41:00,VALID,919.636,VALID,0,VALID,89.4116,VALID,-0.0169808,VALID,18.3638,VALID,133,VALID,1.0393,
2002-02-02, 01:42:00,VALID,919.634,VALID,0,VALID,89.4269,VALID,-0.0679233,VALID,18.373,VALID,124,VALID,1.12141,
2002-02-02, 01:43:00,VALID,919.636,VALID,0,VALID,89.2069,VALID,-0.101885,VALID,18.4157,VALID,124,VALID,0.867399,
2002-02-02, 01:44:00,VALID,919.619,VALID,0,VALID,89.1992,VALID,-0.0509425,VALID,18.4152,VALID,136,VALID,1.17898,
2002-02-02, 01:45:01,VALID,919.637,VALID,0,VALID,89.1509,VALID,-0.0849042,VALID,18.4125,VALID,120,VALID,0.94184,
2002-02-02, 01:46:00,VALID,919.625,VALID,0,VALID,89.2209,VALID,-0.0339617,VALID,18.3763,VALID,124,VALID,0.900174,
2002-02-02, 01:47:00,VALID,919.62,VALID,0,VALID,89.6367,VALID,-0.0169808,VALID,18.3407,VALID,142,VALID,1.20588,
2002-02-02, 01:48:01,VALID,919.583,VALID,0,VALID,89.54,VALID,-0.0509425,VALID,18.3636,VALID,138,VALID,1.28948,
2002-02-02, 01:49:00,VALID,919.558,VALID,0,VALID,89.3226,VALID,-0.0679233,VALID,18.3668,VALID,140,VALID,1.13638,
2002-02-02, 01:50:00,VALID,919.529,VALID,0,VALID,89.3811,VALID,-0.0679233,VALID,18.3601,VALID,124,VALID,1.05161,
2002-02-02, 01:51:00,VALID,919.532,VALID,0,VALID,89.4319,VALID,0.0169808,VALID,18.367,VALID,118,VALID,0.717272,
2002-02-02, 01:52:00,VALID,919.519,VALID,0,VALID,89.5756,VALID,-0.0509425,VALID,18.3442,VALID,134,VALID,0.776605,
2002-02-02, 01:53:00,VALID,919.493,VALID,0,VALID,89.6062,VALID,0,VALID,18.3407,VALID,125,VALID,1.08594,
2002-02-02, 01:54:01,VALID,919.482,VALID,0,VALID,89.3467,VALID,-0.0509425,VALID,18.3308,VALID,117,VALID,0.724609,
2002-02-02, 01:55:01,VALID,919.461,VALID,0,VALID,89.7816,VALID,-0.0509425,VALID,18.3218,VALID,119,VALID,1.04123,
2002-02-02, 01:56:00,VALID,919.436,VALID,0,VALID,89.5922,VALID,-0.0339617,VALID,18.325,VALID,95,VALID,0.983686,
2002-02-02, 01:57:01,VALID,919.44,VALID,0,VALID,89.9024,VALID,-0.0679233,VALID,18.2955,VALID,125,VALID,1.25148,
2002-02-02, 01:58:01,VALID,919.391,VALID,0,VALID,89.8757,VALID,-0.0339617,VALID,18.2662,VALID,136,VALID,0.856027,
2002-02-02, 01:59:00,VALID,919.394,VALID,0,VALID,89.9991,VALID,-0.0339617,VALID,18.2503,VALID,111,VALID,1.13802,
2002-02-02, 02:00:00,VALID,919.376,VALID,0,VALID,90.2865,VALID,0.0509425,VALID,18.2067,VALID,130,VALID,0.827703,
2002-02-02, 02:01:00,VALID,919.36,VALID,0,VALID,90.0868,VALID,0.0509425,VALID,18.1816,VALID,93,VALID,1.21685,
2002-02-02, 02:02:00,VALID,919.357,VALID,0,VALID,90.4747,VALID,0.0339617,VALID,18.1915,VALID,115,VALID,1.39702,
2002-02-02, 02:03:01,VALID,919.36,VALID,0,VALID,90.0499,VALID,0.0509425,VALID,18.233,VALID,115,VALID,1.00043,
2002-02-02, 02:04:01,VALID,919.349,VALID,0,VALID,89.8439,VALID,0.0339617,VALID,18.2655,VALID,129,VALID,1.16688,
2002-02-02, 02:05:00,VALID,919.343,VALID,0,VALID,89.8872,VALID,0.0169808,VALID,18.2817,VALID,131,VALID,1.33318,
2002-02-02, 02:06:01,VALID,919.324,VALID,0,VALID,89.8516,VALID,0.0339617,VALID,18.2812,VALID,117,VALID,1.38872,
2002-02-02, 02:07:01,VALID,919.315,VALID,0,VALID,89.6672,VALID,0.0339617,VALID,18.3234,VALID,132,VALID,1.31429,
2002-02-02, 02:08:00,VALID,919.315,VALID,0,VALID,89.4192,VALID,-0.0169808,VALID,18.3566,VALID,128,VALID,1.18655,
2002-02-02, 02:09:01,VALID,919.304,VALID,0,VALID,89.5375,VALID,-0.0339617,VALID,18.3407,VALID,123,VALID,1.1345,
2002-02-02, 02:10:00,VALID,919.283,VALID,0,VALID,89.526,VALID,-0.0169808,VALID,18.3375,VALID,131,VALID,1.09713,
2002-02-02, 02:11:00,VALID,919.284,VALID,0,VALID,89.4841,VALID,0,VALID,18.3283,VALID,137,VALID,1.09754,
2002-02-02, 02:12:01,VALID,919.283,VALID,0,VALID,89.5807,VALID,-0.0169808,VALID,18.3027,VALID,129,VALID,1.08615,
2002-02-02, 02:13:01,VALID,919.27,VALID,0,VALID,89.933,VALID,-0.0169808,VALID,18.2436,VALID,147,VALID,1.22396,
2002-02-02, 02:14:01,VALID,919.259,VALID,0,VALID,89.9965,VALID,-0.0169808,VALID,18.2378,VALID,133,VALID,1.26838,
2002-02-02, 02:15:01,VALID,919.237,VALID,0,VALID,90.0919,VALID,-0.0339617,VALID,18.2245,VALID,148,VALID,1.68391,
2002-02-02, 02:16:01,VALID,919.211,VALID,0,VALID,90.0474,VALID,-0.0169808,VALID,18.2378,VALID,140,VALID,1.62567,
2002-02-02, 02:17:01,VALID,919.191,VALID,0,VALID,90.0245,VALID,-0.0509425,VALID,18.2674,VALID,144,VALID,1.4536,
2002-02-02, 02:18:01,VALID,919.183,VALID,0,VALID,89.9215,VALID,0,VALID,18.2831,VALID,144,VALID,1.41512,
2002-02-02, 02:19:01,VALID,919.185,VALID,0,VALID,89.9241,VALID,-0.0509425,VALID,18.2826,VALID,148,VALID,1.84269,
2002-02-02, 02:20:01,VALID,919.189,VALID,0,VALID,89.7766,VALID,-0.0509425,VALID,18.3216,VALID,145,VALID,1.39418,
2002-02-02, 02:21:01,VALID,919.199,VALID,0,VALID,89.7117,VALID,-0.0509425,VALID,18.3477,VALID,142,VALID,1.63542,
2002-02-02, 02:22:01,VALID,919.201,VALID,0,VALID,89.624,VALID,-0.0339617,VALID,18.3606,VALID,160,VALID,1.73329,
2002-02-02, 02:23:01,VALID,919.199,VALID,0,VALID,89.5222,VALID,0,VALID,18.3573,VALID,156,VALID,1.58065,
2002-02-02, 02:24:01,VALID,919.206,VALID,0,VALID,89.7066,VALID,0.0169808,VALID,18.3209,VALID,152,VALID,1.47889,
2002-02-02, 02:25:01,VALID,919.197,VALID,0,VALID,89.8783,VALID,0.0339617,VALID,18.2881,VALID,144,VALID,1.27768,
2002-02-02, 02:26:01,VALID,919.159,VALID,0,VALID,90.0054,VALID,0,VALID,18.2789,VALID,140,VALID,1.2081,
2002-02-02, 02:27:01,VALID,919.154,VALID,0,VALID,90.0983,VALID,0,VALID,18.2404,VALID,145,VALID,1.55617,
2002-02-02, 02:28:01,VALID,919.147,VALID,0,VALID,90.1313,VALID,0.0169808,VALID,18.2044,VALID,144,VALID,1.17842,
2002-02-02, 02:29:01,VALID,919.135,VALID,0,VALID,90.289,VALID,0.0169808,VALID,18.182,VALID,142,VALID,1.67401,
2002-02-02, 02:30:01,VALID,919.111,VALID,0,VALID,90.3818,VALID,0.0169808,VALID,18.1592,VALID,151,VALID,1.41536,
2002-02-02, 02:31:01,VALID,919.072,VALID,0,VALID,90.3221,VALID,0,VALID,18.1527,VALID,145,VALID,1.57096,
2002-02-02, 02:32:01,VALID,919.067,VALID,0,VALID,90.5675,VALID,0.0339617,VALID,18.1398,VALID,154,VALID,1.86604,
2002-02-02, 02:33:01,VALID,919.07,VALID,0,VALID,90.5459,VALID,0,VALID,18.1398,VALID,152,VALID,1.81905,
2002-02-02, 02:34:00,VALID,919.068,VALID,0,VALID,90.5878,VALID,0.0169808,VALID,18.1336,VALID,138,VALID,1.58906,
2002-02-02, 02:35:00,VALID,919.052,VALID,0,VALID,90.6031,VALID,-0.0169808,VALID,18.143,VALID,149,VALID,1.55492,
2002-02-02, 02:36:00,VALID,919.023,VALID,0,VALID,90.4683,VALID,-0.0169808,VALID,18.1525,VALID,144,VALID,1.33699,
2002-02-02, 02:37:00,VALID,919.016,VALID,0,VALID,90.5815,VALID,0.0169808,VALID,18.1465,VALID,148,VALID,1.80448,
2002-02-02, 02:38:00,VALID,919.002,VALID,0,VALID,90.6184,VALID,-0.0169808,VALID,18.1271,VALID,148,VALID,1.50213,
2002-02-02, 02:39:00,VALID,918.984,VALID,0,VALID,90.6374,VALID,0,VALID,18.1045,VALID,143,VALID,1.4503,
2002-02-02, 02:40:00,VALID,918.967,VALID,0,VALID,90.7379,VALID,0,VALID,18.0817,VALID,149,VALID,1.426,
2002-02-02, 02:41:00,VALID,918.954,VALID,0,VALID,90.8498,VALID,0.0169808,VALID,18.0983,VALID,153,VALID,1.81296,
2002-02-02, 02:42:00,VALID,918.948,VALID,0,VALID,90.6387,VALID,0,VALID,18.1075,VALID,150,VALID,1.83657,
2002-02-02, 02:43:00,VALID,918.94,VALID,0,VALID,90.5649,VALID,0,VALID,18.1361,VALID,157,VALID,2.07701,
2002-02-02, 02:44:00,VALID,918.913,VALID,0,VALID,90.3119,VALID,0.0169808,VALID,18.1823,VALID,152,VALID,1.32315,
2002-02-02, 02:45:00,VALID,918.914,VALID,0,VALID,90.3653,VALID,0.0169808,VALID,18.1922,VALID,145,VALID,1.84924,
2002-02-02, 02:46:00,VALID,918.898,VALID,0,VALID,90.4111,VALID,0,VALID,18.1885,VALID,144,VALID,1.97403,
2002-02-02, 02:47:00,VALID,918.899,VALID,0,VALID,90.3233,VALID,0,VALID,18.1984,VALID,142,VALID,1.63755,
2002-02-02, 02:48:00,VALID,918.892,VALID,0,VALID,90.3119,VALID,0,VALID,18.2016,VALID,140,VALID,1.30056,
2002-02-02, 02:49:00,VALID,918.875,VALID,0,VALID,90.3195,VALID,-0.0169808,VALID,18.1919,VALID,149,VALID,1.6365,
2002-02-02, 02:50:00,VALID,918.864,VALID,0,VALID,90.4251,VALID,0.0169808,VALID,18.1465,VALID,152,VALID,1.90579,
2002-02-02, 02:51:00,VALID,918.849,VALID,0,VALID,90.6629,VALID,0.0169808,VALID,18.1338,VALID,154,VALID,1.95904,
2002-02-02, 02:52:00,VALID,918.847,VALID,0,VALID,90.6692,VALID,0,VALID,18.1043,VALID,152,VALID,2.01317,
2002-02-02, 02:53:00,VALID,918.836,VALID,0,VALID,90.8027,VALID,0.0339617,VALID,18.0985,VALID,155,VALID,1.90005,
2002-02-02, 02:54:00,VALID,918.824,VALID,0,VALID,90.921,VALID,0,VALID,18.0851,VALID,154,VALID,1.73628,
2002-02-02, 02:55:00,VALID,918.818,VALID,0,VALID,90.865,VALID,-0.0169808,VALID,18.0951,VALID,154,VALID,1.82517,
2002-02-02, 02:56:00,VALID,918.806,VALID,0,VALID,90.7137,VALID,0,VALID,18.1177,VALID,156,VALID,1.97277,
2002-02-02, 02:57:00,VALID,918.809,VALID,0,VALID,90.673,VALID,-0.0169808,VALID,18.1209,VALID,155,VALID,2.24154,
2002-02-02, 02:58:00,VALID,918.786,VALID,0,VALID,90.4391,VALID,-0.0169808,VALID,18.1629,VALID,154,VALID,1.94097,
2002-02-02, 02:59:00,VALID,918.809,VALID,0,VALID,90.1351,VALID,-0.0169808,VALID,18.2346,VALID,148,VALID,1.75161,
2002-02-02, 03:00:00,VALID,918.81,VALID,0,VALID,89.9355,VALID,0,VALID,18.2498,VALID,150,VALID,1.15709,
2002-02-02, 03:01:00,VALID,918.812,VALID,0,VALID,89.9202,VALID,0,VALID,18.2667,VALID,149,VALID,1.6567,
2002-02-02, 03:02:00,VALID,918.797,VALID,0,VALID,89.9749,VALID,0.0169808,VALID,18.2335,VALID,151,VALID,1.68277,
2002-02-02, 03:03:00,VALID,918.8,VALID,0,VALID,90.0767,VALID,0,VALID,18.2014,VALID,151,VALID,1.23438,
2002-02-02, 03:04:00,VALID,918.803,VALID,0,VALID,90.1924,VALID,0,VALID,18.1689,VALID,141,VALID,1.73163,
2002-02-02, 03:05:00,VALID,918.802,VALID,0,VALID,90.3284,VALID,0,VALID,18.14,VALID,149,VALID,1.61861,
2002-02-02, 03:06:00,VALID,918.795,VALID,0,VALID,90.467,VALID,0.0169808,VALID,18.137,VALID,139,VALID,1.90191,
2002-02-02, 03:07:00,VALID,918.783,VALID,0,VALID,90.4798,VALID,0,VALID,18.14,VALID,145,VALID,2.09635,
2002-02-02, 03:08:00,VALID,918.79,VALID,0,VALID,90.4683,VALID,-0.0169808,VALID,18.1527,VALID,136,VALID,1.76953,
2002-02-02, 03:09:00,VALID,918.786,VALID,0,VALID,90.3564,VALID,0,VALID,18.182,VALID,149,VALID,1.86085,
2002-02-02, 03:10:00,VALID,918.787,VALID,0,VALID,90.4047,VALID,0.0169808,VALID,18.1723,VALID,144,VALID,1.68951,
2002-02-02, 03:11:00,VALID,918.782,VALID,0,VALID,90.4772,VALID,0,VALID,18.1497,VALID,148,VALID,1.81889,
2002-02-02, 03:12:00,VALID,918.787,VALID,0,VALID,90.4696,VALID,0.0169808,VALID,18.1539,VALID,158,VALID,1.60494,
2002-02-02, 03:13:00,VALID,918.756,VALID,0,VALID,90.4136,VALID,-0.0169808,VALID,18.1306,VALID,157,VALID,1.77006,
2002-02-02, 03:14:00,VALID,918.747,VALID,0,VALID,90.3094,VALID,0,VALID,18.137,VALID,153,VALID,1.80398,
2002-02-02, 03:15:00,VALID,918.745,VALID,0,VALID,90.3946,VALID,0,VALID,18.1209,VALID,157,VALID,1.69553,
2002-02-02, 03:16:00,VALID,918.743,VALID,0,VALID,90.6133,VALID,-0.0169808,VALID,18.0888,VALID,151,VALID,1.52062,
2002-02-02, 03:17:00,VALID,918.723,VALID,0,VALID,90.7608,VALID,0,VALID,18.0464,VALID,149,VALID,1.25804,
2002-02-02, 03:18:00,VALID,918.72,VALID,0,VALID,90.9146,VALID,0.0169808,VALID,18.0245,VALID,151,VALID,1.30764,
2002-02-02, 03:19:00,VALID,918.701,VALID,0,VALID,91.1105,VALID,0.0169808,VALID,17.9853,VALID,156,VALID,1.73304,
2002-02-02, 03:20:00,VALID,918.685,VALID,0,VALID,91.1359,VALID,0.0169808,VALID,17.9848,VALID,160,VALID,2.09138,
2002-02-02, 03:21:00,VALID,918.679,VALID,0,VALID,91.0799,VALID,0,VALID,17.9982,VALID,159,VALID,1.69806,
2002-02-02, 03:22:00,VALID,918.681,VALID,0,VALID,90.9299,VALID,0.0169808,VALID,18.0173,VALID,159,VALID,1.43644,
2002-02-02, 03:23:00,VALID,918.682,VALID,0,VALID,90.8523,VALID,-0.0509425,VALID,18.0344,VALID,161,VALID,1.75237,
2002-02-02, 03:24:00,VALID,918.686,VALID,0,VALID,90.8701,VALID,-0.101885,VALID,18.0378,VALID,152,VALID,1.79774,
2002-02-02, 03:25:00,VALID,918.671,VALID,0,VALID,90.729,VALID,-0.101885,VALID,18.0676,VALID,154,VALID,1.30339,
2002-02-02, 03:26:00,VALID,918.676,VALID,0,VALID,90.64,VALID,-0.0679233,VALID,18.0867,VALID,157,VALID,1.53217,
2002-02-02, 03:27:00,VALID,918.653,VALID,0,VALID,90.5904,VALID,-0.101885,VALID,18.0897,VALID,158,VALID,1.98184,
2002-02-02, 03:28:00,VALID,918.654,VALID,0,VALID,90.4645,VALID,-0.101885,VALID,18.1156,VALID,148,VALID,1.97321,
2002-02-02, 03:29:00,VALID,918.649,VALID,0,VALID,90.3068,VALID,-0.101885,VALID,18.1476,VALID,150,VALID,1.68205,
2002-02-02, 03:30:00,VALID,918.637,VALID,0,VALID,90.1453,VALID,-0.101885,VALID,18.1804,VALID,146,VALID,1.53315,
2002-02-02, 03:31:00,VALID,918.623,VALID,0,VALID,90.0512,VALID,-0.101885,VALID,18.1896,VALID,151,VALID,2.13704,
2002-02-02, 03:32:00,VALID,918.598,VALID,0,VALID,89.9762,VALID,-0.0679233,VALID,18.2122,VALID,144,VALID,1.7268,